Terminal Aerodrome Forecast
Issued by NWS

Home | Current Version | Previous Version | Text Only | Print | Product List | Glossary On
Versions: 1 2 3 4 5 6 7 8 9 10 11 12
000
FTUS46 KMTR 192300
TAFSTS
TAF
KSTS 192336Z 2000/2024 21010KT P6SM SKC
     FM200300 VRB03KT P6SM SKC
     FM202000 19010KT P6SM SKC=

USA.gov is the U.S. government's official web portal to all federal, state and local government web resources and services.